User: anonymous   Login
Location: Codford Saint Peter
(51.1597°N, 2.0531°W)
Time: 20:45:11
(UTC+00:00)
Language:

Cosmos 1544 - Orbit

View from above orbital plane
View from above orbital plane
View from above satellite
View from above satellite

Ground track
Ground track

The orbit data is extracted from the following two-line orbital elements,

1 14819U 84027A   21332.04635757  .00002175  00000-0  74221-4 0  9997
2 14819  82.4825 190.2444 0014440  70.4853 289.7945 15.29674354 63850
Epoch (UTC): 28 November 2021 01:06:45
Eccentricity: 0.0014440
inclination: 82.4825°
perigee height: 467 km
apogee height: 486 km
right ascension of ascending node: 190.2444°
argument of perigee: 70.4853°
revolutions per day: 15.29674354
mean anomaly at epoch: 289.7945°
orbit number at epoch: 6385

The dashed part of the orbit path shows where the satellite is in the earth's shadow,  

DLR